Starlink 5181

operational
NORAD ID: 54070 Int'l Des: 2022-136 Owner: SPXS Country: US Constellation: starlink
LEOCIRCULAR

About Starlink 5181

Description loading...

Live Position

Loading 3D Globe...

Upcoming Passes

Altitude History

Altitude vs Time

uPlot chart will show altitude changes over time

Two-Line Element Set

1 54070U 22136V 25303.03355087 .00003551 00000-0 24093-3 0 9999
2 54070 53.2166 210.3514 0000921 98.5023 261.6073 15.08865404167129
Epoch: Oct 30, 2025 • Age: 21 hours

Current Status

Altitude 541.1 km
Velocity 7.59 km/s
Sub-Earth Point -2.79°S, 156.88°W
Launch Date Oct 20, 2022
Age 3 years
Type internet

Technical Details

Classification Payload
Mass 305.00 kg
Dry Mass 290.00 kg
Total Mass 305.00 kg
Length 0.20 m
Diameter 2.80 m
Span 9.00 m
Shape Box + pan
Manufacturer SPXS
Bus Type Starlink
Phase Status In Orbit
Owner/State SPXS/US

Large Constellations

Loading constellations...